Regional Weather Roundup
Issued by NWS

Home | Current Version | Previous Version | Graphics & Text | Print | Product List | Glossary On
Versions: 1 2 3 4 5 6 7 8 9 10 11 12 13 14 15 16 17 18 19 20 21 22 23 24 25 26 27 28 29 30 31 32 33 34 35 36 37 38 39 40 41 42 43 44 45 46 47 48 49 50
000
ASUS43 KOAX 010202
RWRNE

WEATHER ROUNDUP FOR NEBRASKA
NATIONAL WEATHER SERVICE OMAHA NE
900 PM CDT MON AUG 31 2015

NOTES: SATELLITE DATA IS BEING USED TO AUGMENT CLOUD COVER ABOVE
       12000 FEET.
       "FAIR" INDICATES FEW OR NO CLOUDS BELOW 12,000 FEET WITH NO
       SIGNIFICANT WEATHER AND/OR OBSTRUCTIONS TO VISIBILITY.

  * THESE STATIONS DO NOT REPORT WEATHER SUCH AS RAIN...SNOW OR FOG.

NEZ001>004-019>022-054>056-010300-
NEBRASKA PANHANDLE

CITY           SKY/WX    TMP DP  RH WIND       PRES   REMARKS
SCOTTSBLUFF    LGT RAIN  75  49  39 SW20G31   30.06R
ALLIANCE       CLOUDY    68  54  60 W9        30.03R
CHADRON        CLOUDY    74  57  55 CALM      29.95R
KIMBALL        LGT RAIN  64  57  79 NW8       30.10R
SIDNEY         MOCLDY    72  50  45 E5        30.05R
$$

NEZ057>060-069>072-079>082-010300-
SOUTHWEST NEBRASKA

CITY           SKY/WX    TMP DP  RH WIND       PRES   REMARKS
NORTH PLATTE   MOCLDY    76  66  71 NE7       29.92R
IMPERIAL       MOCLDY    78  59  51 N7        29.93R
LEXINGTON      CLEAR     74  68  80 E6        29.90R
MCCOOK         CLEAR     82  62  50 E10       29.88R
$$

NEZ005>010-023>029-035>040-094-010300-
NORTH CENTRAL NEBRASKA

CITY           SKY/WX    TMP DP  RH WIND       PRES   REMARKS
VALENTINE      CLOUDY    73  61  65 NE6       29.95R
AINSWORTH      CLOUDY    73  64  75 N5        29.95R
BROKEN BOW     PTCLDY    72  68  87 CALM      29.92R
ORD            CLEAR     75  66  73 E6        29.89R
$$

NEZ041-046>049-061>064-073>077-083>087-010300-
SOUTH CENTRAL NEBRASKA

CITY           SKY/WX    TMP DP  RH WIND       PRES   REMARKS
GRAND ISLAND   CLEAR     76  69  79 E7        29.91R
AURORA         CLEAR     74  72  91 E7        29.91R
HASTINGS       CLEAR     78  66  66 SE7       29.90R
KEARNEY *      CLEAR     72  64  78 NE7       29.90R
YORK           CLEAR     73  70  88 CALM      29.91R
$$

NEZ011>018-030>034-042>045-010300-
NORTHEAST NEBRASKA

CITY           SKY/WX    TMP DP  RH WIND       PRES   REMARKS
NORFOLK        CLEAR     75  70  84 SE7       29.90R
BLAIR          CLEAR     74  66  75 SE5       29.92S
COLUMBUS *     CLEAR     73  66  78 E3        29.90R
FREMONT        CLEAR     76  68  76 SE7       29.91S
TEKAMAH        CLEAR     71  69  93 SE7       29.90R
$$

NEZ050>053-065>068-078-088>093-010300-
SOUTHEAST NEBRASKA

CITY           SKY/WX    TMP DP  RH WIND       PRES   REMARKS
LINCOLN        CLEAR     80  67  64 SE6       29.90R
OMAHA EPPLEY   CLEAR     78  69  73 SE7       29.91R
FALLS CITY     CLEAR     76  70  82 SE7       29.92R
PLATTSMOUTH    CLEAR     75  67  77 E6        29.92R
$$

NEZ044-045-051>053-067-010300-
OMAHA AREA

CITY           SKY/WX    TMP DP  RH WIND       PRES   REMARKS
OMAHA EPPLEY   CLEAR     78  69  73 SE7       29.91R
BLAIR          CLEAR     74  66  75 SE5       29.92S
FREMONT        CLEAR     76  68  76 SE7       29.91S
OFFUTT AFB     CLEAR     70  68  93 E6        29.91R
PLATTSMOUTH    CLEAR     75  67  77 E6        29.92R
$$




USA.gov is the U.S. government's official web portal to all federal, state and local government web resources and services.